Temperature
7 7 7 7 7 7 8 8 8 8 8 8 8 8 8 8 8 8 8 9 9 9 9 9 9 9 9 9 9 9 10 10 9 10 9 9 9 10 10 10 10 10 10
7 7 7 7 7 7 7 7 7 7 7 7 7 8 8 8 8 8 8 8 8 8 8 8 9 9 8 9 9 9 9 9 9 9 9 9 9 9 9 9 9 9 9
6 6 6 6 6 7 7 7 7 7 7 7 7 7 7 7 7 7 7 7 7 7 8 8 8 8 8 8 8 8 8 8 8 8 8 8 8 8 8 9 9 9 9
6 6 6 6 6 6 6 6 6 6 6 6 6 6 6 6 6 7 7 7 7 7 7 7 7 7 7 7 7 7 8 8 8 8 8 8 8 8 8 8 8 8 8
6 5 6 5 5 5 5 5 5 5 5 5 6 6 6 6 6 6 6 6 6 6 6 6 6 7 7 7 7 7 7 7 7 7 7 7 7 7 7 7 7 7 7
5 5 5 5 5 5 5 5 5 5 5 5 5 5 5 5 5 5 5 5 5 5 6 6 6 6 6 6 6 6 6 6 6 6 6 6 7 7 7 7 7 7 7
5 5 5 4 4 4 4 4 4 4 4 4 4 4 4 4 4 4 4 5 5 5 5 5 5 5 5 5 5 5 5 6 6 6 6 6 6 6 6 6 6 6 6
4 4 4 4 4 4 4 4 3 3 3 3 3 3 3 3 3 3 4 4 4 4 4 4 4 4 4 5 5 5 5 5 5 5 5 5 5 5 5 5 5 6 6
4 4 3 3 3 3 3 3 3 3 3 2 2 2 2 2 2 2 2 3 3 3 3 3 3 4 4 4 4 4 4 4 4 4 4 4 5 5 5 5 5 5 5
3 3 3 3 2 3 2 2 2 2 2 2 2 1 1 1 1 1 1 2 2 2 2 2 2 3 3 3 3 3 3 4 4 4 4 4 4 4 4 4 4 4 4
3 2 2 2 2 2 2 2 2 1 1 1 1 1 1 0 0 0 0 1 1 1 1 1 1 2 2 2 2 2 3 3 3 3 3 3 3 3 3 4 4 4 4
2 2 2 1 1 1 1 1 1 1 1 1 0 0 0 -0 -1 -1 -1 -1 -1 0 0 0 0 1 1 1 1 1 2 2 2 2 2 2 2 3 3 3 3 3 3
1 1 1 1 1 1 1 1 1 0 0 0 -0 -0 -1 -1 -1 -2 -2 -2 -2 -1 -1 -1 -1 -0 -0 -0 0 0 1 1 1 1 1 1 1 2 2 2 2 2 2
1 1 1 1 0 0 0 0 0 -0 -0 -1 -1 -1 -1 -2 -2 -2 -2 -3 -3 -3 -2 -2 -1 -1 -1 -1 -1 -1 -0 -0 0 0 0 0 0 1 1 1 1 1 1
1 0 0 0 -0 -0 -0 -1 -1 -1 -1 -1 -2 -2 -2 -2 -3 -3 -3 -3 -3 -4 -3 -3 -3 -2 -2 -2 -2 -2 -1 -1 -1 -1 -0 -0 -0 -0 -0 0 0 1 1
-0 -0 -0 -0 -1 -1 -1 -1 -1 -1 -2 -2 -2 -2 -3 -3 -3 -3 -3 -4 -4 -4 -4 -4 -3 -3 -3 -3 -3 -3 -2 -2 -2 -1 -1 -1 -1 -1 -1 -1 -0 -0 -0
-1 -1 -1 -1 -1 -2 -2 -2 -2 -2 -2 -3 -3 -3 -3 -3 -4 -4 -4 -4 -4 -4 -5 -4 -4 -4 -4 -3 -3 -3 -3 -3 -2 -2 -2 -2 -2 -1 -1 -1 -1 -1 -1
-1 -1 -2 -2 -2 -2 -2 -2 -3 -3 -3 -3 -3 -4 -4 -4 -4 -4 -4 -4 -5 -5 -5 -5 -5 -4 -4 -4 -4 -4 -4 -4 -3 -3 -3 -3 -2 -2 -2 -2 -2 -2 -2
-2 -2 -2 -2 -2 -3 -3 -3 -3 -3 -4 -4 -4 -4 -4 -4 -4 -4 -5 -5 -5 -5 -5 -5 -5 -5 -5 -5 -5 -4 -4 -4 -4 -4 -4 -4 -3 -3 -3 -3 -3 -3 -3
-3 -3 -3 -3 -3 -3 -3 -4 -4 -4 -4 -4 -4 -4 -5 -5 -5 -5 -5 -5 -5 -6 -6 -6 -6 -6 -5 -5 -5 -5 -5 -5 -5 -4 -4 -4 -4 -4 -4 -4 -4 -4 -3
-3 -3 -3 -4 -4 -4 -4 -4 -4 -4 -4 -5 -5 -5 -5 -5 -6 -6 -6 -6 -6 -6 -6 -6 -6 -6 -6 -6 -6 -6 -6 -5 -5 -5 -5 -5 -5 -4 -4 -4 -4 -4 -4
-4 -4 -4 -4 -4 -5 -5 -5 -5 -5 -5 -5 -5 -5 -6 -6 -6 -6 -6 -7 -7 -7 -7 -7 -7 -7 -6 -6 -6 -6 -6 -6 -6 -6 -6 -5 -5 -5 -5 -5 -5 -5 -5
-5 -5 -5 -5 -5 -5 -5 -5 -5 -5 -6 -6 -6 -6 -6 -6 -7 -7 -7 -7 -7 -7 -7 -7 -7 -7 -7 -7 -7 -7 -7 -7 -7 -7 -7 -6 -6 -6 -6 -6 -6 -6 -6
-5 -5 -5 -6 -6 -6 -6 -6 -6 -6 -6 -6 -6 -7 -7 -7 -7 -7 -7 -7 -7 -7 -8 -8 -8 -8 -8 -8 -8 -8 -8 -8 -8 -7 -8 -7 -7 -7 -6 -6 -6 -6 -6
-6 -6 -6 -6 -6 -6 -6 -7 -7 -7 -7 -7 -7 -7 -7 -7 -8 -8 -8 -8 -8 -8 -8 -8 -8 -8 -8 -8 -8 -8 -8 -9 -8 -8 -8 -8 -8 -8 -7 -7 -6 -7 -7
-7 -7 -7 -7 -7 -7 -7 -7 -7 -7 -7 -7 -8 -8 -8 -8 -8 -8 -8 -8 -8 -8 -8 -8 -8 -8 -8 -8 -8 -9 -9 -9 -9 -9 -8 -9 -9 -9 -9 -8 -7 -7 -7
Wind_Speed
5 5 6 7 7 7 7 7 7 8 8 8 9 8 8 8 8 8 8 10 10 9 9 9 9 8 8 8 8 7 7 6 6 6 6 6 7 7 7 7 7 7 7
6 5 5 6 6 7 7 6 6 6 6 6 7 7 7 7 8 8 8 8 9 9 9 8 9 8 8 7 7 7 6 6 5 5 5 4 4 5 5 6 6 6 6
6 6 5 5 6 6 6 6 7 6 5 5 5 6 6 6 7 7 8 8 8 8 8 8 8 8 8 8 6 7 5 6 6 4 4 3 3 3 4 4 5 5 5
7 6 5 5 6 6 6 4 4 3 4 4 4 4 4 5 6 7 8 8 8 8 8 7 7 8 8 8 7 7 6 5 5 5 4 3 3 2 2 3 3 3 4
6 6 5 5 5 5 5 4 3 3 3 3 3 3 3 3 3 5 7 7 8 7 7 7 7 8 8 8 8 7 6 5 5 5 5 3 2 1 1 2 2 3 3
6 6 5 4 5 3 3 3 3 3 2 2 3 3 2 2 3 4 5 6 7 7 7 7 7 7 7 7 8 8 8 5 5 4 4 4 3 2 1 1 2 2 3
6 5 4 4 4 3 2 3 3 3 3 3 2 3 2 2 2 3 4 4 5 6 7 7 7 7 7 7 9 9 10 7 6 5 5 4 5 4 3 3 2 3 3
5 5 4 3 3 3 3 3 3 2 2 3 2 1 1 2 3 3 3 3 4 6 6 7 7 7 7 7 8 10 10 10 7 7 6 5 5 5 5 4 4 4 4
5 5 4 4 3 3 2 2 2 2 1 2 3 2 1 0 2 2 2 3 4 4 4 5 6 7 7 7 8 9 10 11 9 8 7 7 6 6 6 6 6 5 5
5 5 5 5 4 3 2 2 3 2 2 1 2 2 1 0 0 2 2 2 3 3 4 4 5 6 7 7 8 10 11 11 10 9 8 8 8 7 7 7 6 6 6
5 5 5 4 4 3 3 3 3 2 2 1 1 2 2 2 1 1 2 3 3 3 3 3 4 5 6 6 7 9 10 11 11 10 10 9 9 9 9 8 8 7 7
3 4 5 4 4 3 3 2 3 2 2 2 2 2 1 1 2 1 1 2 3 3 3 2 2 3 5 5 7 10 11 11 11 11 10 10 10 10 10 9 9 9 9
3 3 3 3 3 3 3 3 3 2 2 1 1 1 1 1 1 2 1 2 3 3 2 2 1 3 5 6 9 11 11 11 12 12 11 11 11 11 11 10 10 10 10
3 3 3 3 3 4 3 3 2 2 2 1 1 1 1 1 2 1 1 2 3 3 2 3 2 3 6 8 10 12 12 12 12 12 11 11 11 11 11 11 11 10 10
3 4 4 3 3 3 3 3 2 1 1 1 1 1 1 1 1 1 1 1 2 3 4 2 2 3 8 9 10 11 11 14 13 12 12 12 11 11 11 12 11 11 11
4 4 4 3 3 3 3 2 2 1 1 0 0 0 1 1 1 1 1 2 2 3 4 3 3 4 7 9 11 11 13 15 14 13 12 12 12 12 12 12 12 12 12
4 4 4 4 3 3 2 2 2 1 1 0 0 0 1 1 1 1 2 2 2 2 5 5 3 4 5 6 9 11 12 12 11 13 13 12 12 12 12 13 13 13 13
4 4 3 3 3 3 2 2 2 1 1 1 1 1 1 1 1 2 1 2 3 3 4 6 5 4 5 6 7 8 10 10 10 12 13 12 12 12 12 13 13 14 14
4 3 3 3 3 2 2 2 2 1 1 1 1 1 1 1 2 2 2 3 3 3 3 4 6 5 5 5 6 7 8 7 9 11 12 12 12 13 13 14 14 14 15
4 3 3 3 2 2 1 1 1 1 1 1 1 1 2 2 2 3 3 3 3 3 4 4 5 5 5 5 4 5 5 4 5 9 10 11 12 14 14 15 14 14 15
3 3 2 2 1 1 1 1 1 1 1 1 1 2 2 3 4 4 4 3 3 3 4 4 5 5 5 4 5 4 6 5 5 5 5 7 10 10 11 13 14 14 16
2 2 2 2 1 1 2 2 1 1 1 1 2 2 3 4 6 7 7 7 6 5 5 5 5 6 6 5 5 6 5 6 5 3 5 7 8 7 9 11 14 16 17
2 2 2 1 1 1 2 2 2 1 2 2 2 3 3 4 5 4 6 8 8 9 8 6 6 6 6 6 6 6 6 6 7 6 5 8 5 7 9 12 16 17 17
2 2 2 1 1 1 2 3 3 2 2 3 3 3 3 3 4 4 4 4 5 6 8 6 5 6 7 7 6 6 6 6 6 6 6 7 6 7 9 11 15 16 17
1 1 1 1 1 2 3 3 3 2 2 3 4 3 4 4 7 7 4 4 5 6 8 9 10 11 12 13 10 5 5 5 7 6 4 4 5 7 7 7 11 13 15
1 1 0 1 1 2 3 4 3 2 2 3 3 4 6 6 8 8 4 4 5 6 5 6 7 9 9 10 12 6 4 5 6 5 3 3 5 5 5 5 6 8 11
Wind_Direction
53 50 52 46 43 40 35 32 33 32 33 33 37 40 41 45 50 51 49 49 42 40 38 39 43 45 47 50 52 58 59 59 58 56 60 61 62 62 57 56 56 55 52
61 53 49 46 44 38 34 37 39 34 32 36 35 36 39 40 48 49 50 47 43 40 38 37 38 39 39 43 43 46 52 50 52 55 60 56 59 63 58 56 57 53 49
64 57 51 43 43 41 38 44 43 41 36 36 30 30 41 41 42 47 49 48 46 39 35 34 33 34 34 33 34 35 43 42 39 42 50 48 54 55 54 52 55 52 50
72 62 53 46 43 42 39 39 44 39 27 20 10 12 33 43 45 53 53 50 53 45 36 35 34 33 33 28 24 24 29 30 32 32 32 37 35 35 40 40 41 41 42
80 69 58 56 49 45 37 33 40 38 34 22 8 3 13 34 49 64 61 52 57 53 42 33 29 28 29 26 18 12 10 17 18 16 17 7 357 359 6 9 17 25 32
85 77 69 62 55 50 44 41 38 35 35 21 15 10 350 28 57 70 68 56 50 47 42 34 28 22 20 18 12 8 4 360 3 1 356 360 338 307 309 322 335 345 348
89 85 73 64 55 54 60 56 51 43 33 26 25 8 3 23 57 66 65 60 49 43 38 35 33 27 18 15 7 1 357 348 346 348 343 341 346 329 299 294 293 301 313
91 95 80 67 64 67 66 60 59 44 31 22 19 5 11 6 21 24 34 48 46 44 33 25 28 26 22 20 5 357 354 349 344 346 343 335 332 327 315 295 288 290 292
96 93 90 78 67 67 84 63 55 62 42 8 25 42 54 330 321 326 8 36 36 31 21 20 22 26 20 20 10 359 354 348 339 336 337 338 334 330 326 317 290 285 286
102 95 91 87 76 66 77 62 43 40 53 13 4 17 29 16 353 318 317 8 14 10 9 8 13 17 15 15 3 354 351 348 338 334 332 330 330 330 328 321 319 302 292
104 103 100 91 79 72 67 57 50 42 43 37 15 356 1 4 2 297 297 331 345 339 346 359 13 7 5 3 354 348 345 342 337 331 330 329 329 329 327 323 315 313 303
104 101 103 96 89 82 78 72 65 55 39 35 22 23 16 2 342 340 316 317 314 310 324 337 1 357 349 0 354 348 343 341 338 332 330 331 330 329 326 322 316 311 306
132 124 106 101 97 94 93 86 75 76 59 50 36 20 19 356 331 328 320 308 307 303 306 317 353 357 351 358 349 341 338 333 333 330 329 330 331 330 327 323 318 315 311
147 132 121 115 108 106 102 90 73 81 66 61 29 29 15 351 344 339 309 314 311 304 305 301 334 8 355 346 339 336 332 326 323 323 322 322 323 322 321 319 318 318 318
139 133 127 120 114 109 105 100 94 92 82 74 52 25 6 338 339 327 314 290 273 290 292 300 334 341 337 330 329 330 327 324 318 316 315 317 317 316 316 314 312 309 308
133 135 133 128 120 115 113 102 97 87 99 88 75 40 323 312 323 318 306 298 281 263 276 296 308 310 323 321 319 322 318 316 316 308 308 311 312 311 311 310 306 305 304
131 139 141 137 135 133 122 119 127 124 124 112 5 339 292 297 297 296 295 292 288 280 280 294 301 309 312 310 311 311 310 307 308 305 304 306 307 307 306 305 304 303 303
134 136 138 141 147 144 134 142 151 145 157 205 265 276 288 304 302 293 292 287 282 279 278 291 300 303 298 302 302 304 311 311 308 306 303 305 304 303 303 303 303 302 302
139 137 140 146 149 149 150 155 164 167 190 219 236 251 273 285 289 295 292 282 281 287 284 284 292 297 294 297 302 303 305 307 309 309 305 302 303 302 301 301 301 301 301
141 143 147 148 149 154 163 169 173 171 196 233 247 263 274 267 269 276 278 275 277 283 285 283 287 292 292 296 303 304 301 299 303 305 302 301 299 300 298 298 298 299 299
137 140 139 138 146 167 179 168 199 211 220 250 264 271 274 275 280 281 281 278 277 272 274 277 284 293 296 304 305 303 300 302 289 290 302 301 299 293 290 289 292 293 294
140 139 148 154 174 197 209 224 246 252 257 254 269 275 276 273 281 287 291 292 289 277 273 273 281 284 289 292 300 298 297 302 296 291 298 296 296 288 290 285 286 290 292
151 155 163 161 184 210 227 242 259 284 267 263 265 275 281 286 292 289 291 295 296 293 287 276 270 275 284 288 291 290 283 285 286 289 293 288 281 286 290 285 288 289 290
164 174 173 184 199 230 248 258 268 281 265 266 265 265 271 281 281 286 288 293 288 291 289 287 270 274 282 283 277 281 285 291 291 287 288 284 286 284 292 285 283 284 288
157 167 168 187 197 253 268 263 269 272 271 271 272 271 272 269 277 281 284 285 291 294 293 290 290 294 296 295 293 297 293 293 295 294 282 276 294 302 290 283 280 285 292
160 167 208 209 210 237 270 273 274 268 277 284 285 284 281 279 283 286 277 270 282 289 294 301 301 300 299 299 298 290 278 280 289 291 282 291 298 316 304 288 289 296 295
Height
1528 1528 1529 1530 1530 1530 1531 1531 1532 1532 1533 1534 1534 1534 1535 1536 1536 1537 1537 1538 1538 1539 1539 1540 1540 1541 1541 1541 1542 1542 1543 1543 1543 1544 1544 1544 1545 1545 1545 1546 1546 1546 1546
1527 1527 1528 1528 1529 1529 1530 1530 1531 1531 1532 1532 1533 1533 1533 1534 1535 1535 1536 1536 1537 1537 1538 1538 1539 1539 1539 1540 1540 1540 1541 1541 1542 1542 1542 1543 1543 1544 1544 1544 1544 1544 1545
1525 1526 1527 1527 1528 1528 1529 1529 1529 1530 1530 1531 1531 1531 1532 1532 1533 1533 1534 1534 1535 1535 1536 1536 1537 1537 1537 1538 1538 1539 1539 1539 1540 1540 1541 1541 1541 1542 1542 1543 1543 1543 1543
1524 1525 1526 1526 1527 1527 1528 1528 1528 1528 1529 1529 1529 1530 1530 1531 1531 1532 1532 1533 1533 1533 1534 1534 1534 1535 1535 1536 1536 1537 1537 1537 1538 1538 1538 1539 1539 1540 1540 1541 1541 1541 1541
1523 1524 1524 1525 1526 1526 1527 1527 1527 1527 1527 1527 1528 1528 1529 1529 1529 1530 1530 1531 1531 1531 1532 1532 1532 1533 1533 1533 1534 1534 1535 1535 1535 1536 1536 1537 1537 1537 1538 1538 1539 1539 1539
1521 1522 1523 1524 1524 1525 1525 1525 1525 1526 1526 1526 1526 1526 1527 1527 1528 1528 1529 1529 1529 1530 1530 1530 1530 1530 1531 1531 1531 1532 1532 1533 1533 1533 1534 1534 1534 1535 1535 1536 1536 1536 1537
1520 1520 1521 1522 1523 1523 1524 1524 1524 1524 1524 1525 1524 1524 1525 1526 1526 1527 1527 1527 1528 1528 1528 1528 1528 1528 1528 1529 1529 1529 1529 1530 1530 1530 1530 1531 1531 1532 1532 1533 1533 1534 1534
1518 1519 1520 1520 1521 1522 1522 1523 1523 1523 1523 1524 1524 1523 1523 1525 1525 1525 1525 1525 1526 1526 1526 1526 1526 1526 1526 1526 1526 1526 1526 1526 1527 1527 1527 1528 1528 1529 1529 1529 1530 1530 1531
1516 1517 1518 1519 1519 1520 1520 1520 1521 1521 1521 1522 1523 1524 1523 1523 1523 1523 1523 1523 1523 1523 1524 1523 1523 1524 1524 1524 1523 1523 1523 1523 1524 1524 1524 1524 1525 1525 1525 1526 1526 1527 1527
1514 1515 1516 1517 1518 1518 1519 1519 1519 1520 1520 1520 1521 1522 1523 1522 1522 1520 1521 1521 1521 1521 1521 1520 1521 1521 1521 1521 1521 1520 1520 1520 1520 1520 1520 1520 1520 1521 1521 1521 1522 1522 1523
1511 1513 1514 1515 1516 1516 1517 1517 1518 1518 1519 1519 1519 1520 1520 1521 1520 1520 1518 1518 1518 1519 1519 1518 1518 1517 1518 1518 1517 1517 1517 1517 1517 1516 1516 1516 1516 1516 1517 1517 1518 1518 1518
1508 1510 1512 1513 1514 1514 1515 1515 1516 1516 1517 1517 1517 1517 1518 1518 1518 1517 1516 1516 1516 1516 1516 1516 1515 1515 1515 1515 1514 1514 1514 1513 1513 1513 1513 1512 1512 1512 1512 1512 1513 1513 1513
1505 1507 1509 1510 1511 1512 1512 1513 1513 1514 1514 1515 1515 1515 1515 1516 1516 1515 1515 1514 1514 1513 1513 1513 1513 1512 1512 1511 1511 1511 1511 1510 1510 1509 1509 1508 1508 1508 1508 1508 1508 1508 1508
1503 1505 1506 1507 1508 1509 1509 1510 1511 1511 1512 1512 1513 1513 1513 1513 1514 1513 1514 1513 1512 1511 1510 1510 1510 1510 1509 1508 1508 1507 1507 1506 1506 1505 1505 1504 1504 1503 1503 1503 1503 1503 1502
1501 1502 1503 1504 1506 1506 1507 1507 1508 1509 1509 1510 1510 1510 1510 1511 1511 1511 1511 1511 1511 1509 1507 1507 1507 1506 1506 1505 1504 1504 1503 1502 1502 1501 1501 1500 1499 1499 1498 1498 1498 1498 1498
1498 1499 1501 1502 1503 1504 1504 1505 1505 1506 1507 1507 1507 1508 1508 1508 1508 1508 1509 1509 1508 1508 1505 1504 1503 1503 1502 1502 1501 1500 1499 1498 1497 1497 1496 1496 1495 1494 1494 1493 1493 1493 1492
1495 1497 1498 1499 1500 1501 1502 1502 1503 1504 1504 1504 1505 1505 1505 1505 1505 1505 1505 1505 1505 1504 1502 1500 1500 1499 1499 1498 1497 1496 1494 1493 1492 1492 1492 1491 1490 1490 1489 1488 1488 1487 1487
1492 1494 1495 1496 1497 1498 1499 1499 1500 1501 1501 1501 1502 1502 1502 1502 1502 1502 1502 1502 1501 1501 1500 1497 1496 1496 1495 1494 1492 1491 1490 1489 1487 1487 1486 1486 1486 1485 1484 1483 1482 1482 1481
1489 1491 1492 1493 1494 1495 1496 1497 1497 1498 1498 1499 1499 1499 1499 1498 1498 1498 1498 1498 1497 1497 1496 1495 1493 1492 1491 1490 1488 1487 1486 1484 1483 1482 1482 1481 1480 1480 1479 1478 1477 1476 1475
1487 1488 1489 1490 1491 1492 1493 1494 1495 1495 1495 1496 1496 1495 1495 1495 1495 1494 1494 1494 1493 1493 1492 1491 1489 1488 1487 1485 1484 1482 1480 1479 1478 1478 1477 1476 1475 1474 1473 1472 1471 1470 1469
1484 1485 1486 1487 1488 1489 1490 1491 1492 1492 1492 1492 1492 1492 1491 1491 1491 1491 1490 1490 1489 1488 1488 1487 1485 1484 1482 1481 1480 1478 1476 1474 1473 1473 1471 1471 1470 1468 1467 1466 1465 1464 1463
1481 1482 1483 1484 1485 1486 1487 1488 1489 1489 1489 1488 1488 1488 1488 1488 1487 1487 1487 1486 1486 1485 1484 1483 1482 1480 1478 1477 1476 1474 1472 1470 1468 1468 1467 1464 1464 1462 1461 1460 1459 1458 1457
1478 1479 1480 1481 1482 1483 1484 1485 1485 1485 1485 1485 1485 1484 1484 1484 1483 1483 1482 1482 1481 1481 1481 1480 1478 1476 1475 1474 1472 1470 1469 1467 1465 1463 1462 1458 1458 1456 1455 1454 1453 1452 1451
1475 1476 1477 1478 1479 1480 1481 1481 1482 1482 1482 1481 1481 1481 1480 1480 1479 1479 1478 1477 1477 1476 1475 1475 1474 1472 1471 1469 1468 1467 1465 1462 1460 1459 1458 1454 1452 1451 1449 1448 1447 1446 1445
1473 1474 1474 1475 1476 1477 1478 1478 1478 1478 1478 1478 1477 1477 1477 1476 1476 1475 1474 1473 1472 1471 1471 1470 1468 1467 1466 1465 1464 1462 1460 1458 1454 1453 1453 1450 1447 1445 1443 1441 1441 1440 1439
1470 1471 1472 1473 1473 1474 1474 1475 1475 1475 1474 1474 1474 1473 1473 1472 1472 1471 1470 1469 1467 1466 1465 1464 1463 1462 1461 1460 1459 1458 1456 1454 1451 1448 1447 1446 1443 1441 1437 1435 1435 1434 1432